label-worx.com alexa rank chart, label-worx.com alexa rank daily changes

label-worx.com alexa rank chart, label-worx.com alexa rank daily changes

label-worx.com
Actual rank:
100 118

RANK HISTORY

Date Rank Diff
2017/05/30 100 118 +1 087
2017/05/29 99 031 +257
2017/05/28 98 774 +1 284
2017/05/27 97 490 -842
2017/05/26 98 332 +689
2017/05/25 97 643 -214
2017/05/24 97 857 +182
2017/05/23 97 675 +1 790
2017/05/22 95 885 +1 803
2017/05/21 94 082 -14
2017/05/20 94 096 +1 367
2017/05/19 92 729 +1 360
2017/05/18 91 369 -1 670
2017/05/17 93 039 -477
2017/05/16 93 516 +1 094
2017/05/15 92 422 +304
2017/05/14 92 118 +1 297
2017/05/13 90 821 +162
2017/05/12 90 659 -1 049
2017/05/11 91 708 -732
2017/05/10 92 440 -105
2017/05/09 92 545 +1 036
2017/05/08 91 509 -208
2017/05/07 91 717 +725
2017/05/06 90 992 -713
2017/05/05 91 705 +628
2017/05/04 91 077 -128
2017/05/03 91 205 -1 113
2017/05/02 92 318 +988
2017/05/01 91 330 -353
2017/04/30 91 683 +508
2017/04/29 91 175 +447
2017/04/28 90 728 -730
2017/04/27 91 458 +2 708
2017/04/26 88 750 -558
2017/04/25 89 308 +420
2017/04/24 88 888 -91
2017/04/23 88 979 -310
2017/04/22 89 289 -713
2017/04/21 90 002 +244
2017/04/20 89 758 -40
2017/04/19 89 798 +194
2017/04/18 89 604 +1 284
2017/04/17 88 320 -14
2017/04/16 88 334 -1 611
2017/04/15 89 945 +708
2017/04/14 89 237 -1 120
2017/04/13 90 357 -968
2017/04/12 91 325 +1 540
2017/04/11 89 785 +153
2017/04/10 89 632 +161
2017/04/09 89 471 -107
2017/04/08 89 578 -254
2017/04/07 89 832 -2 135
2017/04/06 91 967 -381
2017/04/05 92 348 -753
2017/04/04 93 101 +347
2017/04/03 92 754 +381
2017/04/02 92 373 +136
2017/04/01 92 237 +80
2017/03/31 92 157

WIDGET FOR YOUR SITE

DOMAINS WITH THE NEAREST RANK

Domain Rank
ishayoga.org 100 113
lead4ward.com 100 114
personatrk.com 100 115
icount.co.il 100 116
ahadees.com 100 117
label-worx.com 100 118
fabrikant.ru 100 119
saic.com 100 120
nutc.edu.tw 100 121
proteste.org.br 100 122
zhonghuanus.com 100 123

DOMAINS WITH THE NEAREST RANK BY TLD .com

Domain Rank
pinchecker.com 100 108
vinelink.com 100 109
lead4ward.com 100 114
personatrk.com 100 115
ahadees.com 100 117
label-worx.com 100 118
saic.com 100 120
zhonghuanus.com 100 123
peachjar.com 100 124
btbanking.com 100 129
audiokinetic.com 100 131